ITAMSAT (IO-26)

Last updated on Wed Jul 09 2025 00:03:05 GMT+0000 (Coordinated Universal Time)

1 22826U 93061D 25189.10967800 .00000083 00000+0 48641-4 0 9992 2 22826 98.7301 250.6912 0009219 20.9529 339.2029 14.31221132658099
UTC large
Height (km)
Speed (km/s)
/
Latitude / Longitude
Inclination (degrees)
Orbital Period (minutes)
Azimuth
Elevation
Range (km)
Doppler Factor

Next 0 passes for location: London (51.5072 / 0.1276)

Sorry there are no passes over London.